Radioactive Concentration measured by Seawater Radiation Monitor near Fukushima Daiichi Nuclear Power Station
Date,Time,Cs137(Bq/L),Cs134(Bq/L),Total β(Bq/L)
2020/03/03,00:00,0.093,ND,23
2020/03/03,00:10,0.093,ND,22
2020/03/03,00:20,0.091,ND,22
2020/03/03,00:30,0.12,ND,23
2020/03/03,00:40,0.087,ND,23
2020/03/03,00:50,0.12,ND,24
2020/03/03,01:00,0.12,ND,23
2020/03/03,01:10,0.12,ND,24
2020/03/03,01:20,0.095,ND,25
2020/03/03,01:30,0.087,ND,24
2020/03/03,01:40,0.085,ND,26
2020/03/03,01:50,0.069,ND,26
2020/03/03,02:00,0.065,ND,29
2020/03/03,02:10,0.064,ND,28
2020/03/03,02:20,0.064,ND,26
2020/03/03,02:30,0.056,ND,26
2020/03/03,02:40,0.058,ND,26
2020/03/03,02:50,0.079,ND,28
2020/03/03,03:00,0.092,ND,25
2020/03/03,03:10,0.098,ND,26
2020/03/03,03:20,0.10,ND,29
2020/03/03,03:30,0.11,ND,26
2020/03/03,03:40,0.11,ND,25
2020/03/03,03:50,0.10,ND,23
2020/03/03,04:00,0.10,ND,21
2020/03/03,04:10,0.10,ND,20
2020/03/03,04:20,0.10,ND,16
2020/03/03,04:30,0.090,ND,16
2020/03/03,04:40,0.086,ND,16
2020/03/03,04:50,0.083,ND,16
2020/03/03,05:00,0.067,ND,17
2020/03/03,05:10,0.060,ND,19
2020/03/03,05:20,0.078,ND,21
2020/03/03,05:30,0.053,ND,21
2020/03/03,05:40,0.051,ND,23
2020/03/03,05:50,0.082,ND,23
2020/03/03,06:00,0.092,ND,19
2020/03/03,06:10,0.098,ND,18
2020/03/03,06:20,0.10,ND,18
2020/03/03,06:30,0.11,ND,18
2020/03/03,06:40,0.11,ND,14
2020/03/03,06:50,0.11,ND,14
2020/03/03,07:00,0.11,ND,18
2020/03/03,07:10,0.11,ND,19
2020/03/03,07:20,0.099,ND,19
2020/03/03,07:30,0.12,ND,22
2020/03/03,07:40,0.13,ND,27
2020/03/03,07:50,0.10,ND,28
2020/03/03,08:00,0.082,ND,27
2020/03/03,08:10,0.082,ND,26
2020/03/03,08:20,0.082,ND,26
2020/03/03,08:30,0.089,ND,24
2020/03/03,08:40,0.084,ND,21
2020/03/03,08:50,0.073,ND,20
2020/03/03,09:00,0.079,ND,18
2020/03/03,09:10,0.084,ND,19
2020/03/03,09:20,0.091,ND,20
2020/03/03,09:30,0.099,ND,20
2020/03/03,09:40,0.11,ND,21
2020/03/03,09:50,0.11,ND,23
2020/03/03,10:00,0.11,ND,25
2020/03/03,10:10,0.075,ND,26
2020/03/03,10:20,0.091,ND,24
2020/03/03,10:30,0.091,ND,23
2020/03/03,10:40,0.075,ND,22
2020/03/03,10:50,0.090,ND,23
2020/03/03,11:00,0.086,ND,21
2020/03/03,11:10,0.082,ND,20
2020/03/03,11:20,0.089,ND,18
2020/03/03,11:30,0.12,ND,19
2020/03/03,11:40,0.15,ND,24
2020/03/03,11:50,0.15,ND,18
2020/03/03,12:00,0.15,ND,22
2020/03/03,12:10,0.16,ND,21
2020/03/03,12:20,0.15,ND,24
2020/03/03,12:30,0.15,ND,26
2020/03/03,12:40,0.15,ND,21
2020/03/03,12:50,0.13,ND,24
2020/03/03,13:00,0.14,ND,24
2020/03/03,13:10,0.14,ND,23
2020/03/03,13:20,0.15,ND,23
2020/03/03,13:30,0.15,ND,22
2020/03/03,13:40,0.098,ND,22
2020/03/03,13:50,0.12,ND,20
2020/03/03,14:00,0.13,ND,20
2020/03/03,14:10,0.10,ND,20
2020/03/03,14:20,0.086,ND,19
2020/03/03,14:30,0.086,ND,18
2020/03/03,14:40,0.12,ND,19
2020/03/03,14:50,0.12,ND,19
2020/03/03,15:00,0.075,ND,18
2020/03/03,15:10,0.11,ND,21
2020/03/03,15:20,0.084,ND,18
2020/03/03,15:30,0.091,ND,18
2020/03/03,15:40,0.098,ND,18
2020/03/03,15:50,0.082,ND,19
2020/03/03,16:00,0.088,ND,20
2020/03/03,16:10,0.091,ND,22
2020/03/03,16:20,0.11,ND,25
2020/03/03,16:30,0.11,ND,26
2020/03/03,16:40,0.10,ND,25
2020/03/03,16:50,0.16,ND,26
2020/03/03,17:00,0.15,ND,24
2020/03/03,17:10,0.15,ND,21
2020/03/03,17:20,0.11,ND,20
2020/03/03,17:30,0.11,ND,19
2020/03/03,17:40,0.11,ND,20
2020/03/03,17:50,0.11,ND,18
2020/03/03,18:00,0.093,ND,17
2020/03/03,18:10,0.13,ND,16
2020/03/03,18:20,0.13,ND,15
2020/03/03,18:30,0.12,ND,16
2020/03/03,18:40,0.13,ND,17
2020/03/03,18:50,0.11,ND,16
2020/03/03,19:00,0.11,ND,17
2020/03/03,19:10,0.11,ND,16
2020/03/03,19:20,0.11,ND,16
2020/03/03,19:30,0.099,ND,17
2020/03/03,19:40,0.079,ND,18
2020/03/03,19:50,0.078,ND,21
2020/03/03,20:00,0.079,ND,20
2020/03/03,20:10,0.089,ND,19
2020/03/03,20:20,0.095,ND,20
2020/03/03,20:30,0.090,ND,18
2020/03/03,20:40,0.11,ND,17
2020/03/03,20:50,0.12,ND,14
2020/03/03,21:00,0.11,ND,18
2020/03/03,21:10,0.12,ND,18
2020/03/03,21:20,0.10,ND,18
2020/03/03,21:30,0.076,ND,18
2020/03/03,21:40,0.054,ND,18
2020/03/03,21:50,0.058,ND,22
2020/03/03,22:00,0.091,ND,21
2020/03/03,22:10,0.077,ND,24
2020/03/03,22:20,0.091,ND,27
2020/03/03,22:30,0.095,ND,26
2020/03/03,22:40,0.11,ND,25
2020/03/03,22:50,0.097,ND,24
2020/03/03,23:00,0.098,ND,23
2020/03/03,23:10,0.086,ND,20
2020/03/03,23:20,0.083,ND,17
2020/03/03,23:30,0.095,ND,17
2020/03/03,23:40,0.10,ND,18
2020/03/03,23:50,0.072,ND,18
